Tracking 19193 objects as of 24-Jun-2018
HD Live streaming from Space Station
objects crossing your sky now

FENGYUN 1C DEB

Track FENGYUN 1C DEB now!
10-day predictions


NORAD ID: 31188
Int'l Code: 1999-025BJS
Perigee: 811.7 km
Apogee: 916.3 km
Inclination: 99.0 °
Period: 102.1 minutes
Semi major axis: 7235 km
RCS: 0.0141 m2 (small)
Launch date: May 10, 1999
Source: People's Republic of China (PRC)
Launch site: Taiyaun Space Center, China (TSC)

Note: This is SATELLITE DEBRIS
aabbcc
Your satellite tracking list
Your tracking list is empty




NASA's NSSDC Master Catalog

Two Line Element Set (TLE):
1 31188U 99025BJS 18174.94944679 +.00000415 +00000-0 +25042-3 0  9995
2 31188 098.9514 230.8608 0072263 088.4348 034.4572 14.10731911577621
Source of the keplerian elements: AFSPC